sat.trackr.live / text

‹ back to catalog

STARLINK-5937

NORAD 56922 · 2023-083AY

PAYLOAD ACTIVE UNKNOWN

§ Identity

Operator
Country
US
Launch date
2023-06-12
Launch site
AFETR
Launch vehicle
Mass (kg)
RCS (m²)

Purposes: comms

External: N2YO · Heavens-Above · Gunter

§ Orbital elements

Epoch: 2026-05-24T17:25:28.244640Z

Period
94.27 min
Inclination
43.0057°
Eccentricity
0.0001652
Mean motion
15.27578387 rev/d
Perigee alt
481.9 km
Apogee alt
484.2 km
Semi-major
6,861.2 km
B*
2.5138e-5
RAAN
1.5420°
Arg perigee
267.2409°
Mean anomaly
92.8254°
Rev number
16,342

§ Raw data

STARLINK-59371 56922U 23083AY  26144.72602135  .00000429  00000+0  25138-4 0  99902 56922  43.0057   1.5420 0001652 267.2409  92.8254 15.27578387163420

JSON: /api/v1/satellites/56922 · /tle

For live sub-satellite position, see the globe view (requires WebGL).

§ Visibility from observer

Set your observer location to see the next 7 days of passes ≥ 10°. The values pass through the URL so the page stays shareable.

No JS? Fill the form by hand. The geolocation button needs JavaScript.